QPF
0.03 0.02 0.02 0.02 0.02 0.01 0.01 0.02 0.07 0.07 0.04 0.01 0.00 0.00 0.00 0.00 0.00 0.00 0.00 0.00 0.00 0.00 0.00 0.00 0.00 0.00 0.00 0.00 0.00 0.01 0.03 0.03 0.01 0.00 0.00 0.00 0.00 0.00 0.00 0.00 0.00 0.00 0.00 0.03
0.00 0.00 0.00 0.02 0.06 0.06 0.04 0.07 0.12 0.10 0.06 0.01 0.00 0.00 0.01 0.00 0.00 0.00 0.00 0.00 0.00 0.00 0.00 0.00 0.00 0.00 0.00 0.00 0.00 0.01 0.04 0.04 0.01 0.01 0.01 0.00 0.00 0.00 0.00 0.00 0.00 0.01 0.00 0.00
0.01 0.00 0.01 0.06 0.07 0.07 0.08 0.07 0.05 0.04 0.03 0.01 0.02 0.05 0.07 0.03 0.01 0.00 0.00 0.00 0.00 0.01 0.01 0.00 0.00 0.00 0.00 0.00 0.01 0.01 0.03 0.04 0.02 0.03 0.03 0.02 0.02 0.02 0.01 0.01 0.00 0.00 0.01 0.02
0.05 0.04 0.09 0.17 0.14 0.19 0.23 0.12 0.05 0.05 0.05 0.03 0.13 0.28 0.15 0.06 0.04 0.02 0.02 0.01 0.01 0.02 0.02 0.01 0.00 0.00 0.00 0.02 0.02 0.02 0.04 0.07 0.07 0.07 0.06 0.08 0.09 0.08 0.08 0.06 0.05 0.03 0.06 0.09
0.09 0.10 0.24 0.28 0.15 0.26 0.27 0.16 0.06 0.07 0.06 0.04 0.11 0.16 0.10 0.03 0.02 0.02 0.02 0.02 0.02 0.02 0.01 0.01 0.01 0.00 0.00 0.01 0.02 0.02 0.02 0.03 0.05 0.06 0.08 0.11 0.11 0.13 0.19 0.20 0.18 0.19 0.25 0.24
0.07 0.08 0.20 0.24 0.09 0.16 0.21 0.21 0.05 0.04 0.03 0.01 0.01 0.02 0.06 0.05 0.02 0.02 0.01 0.00 0.01 0.01 0.00 0.00 0.00 0.00 0.00 0.00 0.00 0.00 0.00 0.00 0.00 0.01 0.02 0.05 0.07 0.09 0.14 0.18 0.22 0.28 0.27 0.19
0.02 0.04 0.06 0.04 0.04 0.10 0.21 0.22 0.04 0.02 0.01 0.00 0.00 0.00 0.04 0.06 0.02 0.02 0.01 0.00 0.00 0.00 0.00 0.00 0.00 0.00 0.00 0.00 0.00 0.00 0.00 0.00 0.00 0.00 0.00 0.00 0.01 0.02 0.04 0.08 0.11 0.12 0.12 0.11
0.01 0.02 0.02 0.01 0.04 0.10 0.09 0.04 0.01 0.00 0.00 0.00 0.00 0.00 0.01 0.03 0.01 0.01 0.00 0.00 0.00 0.00 0.00 0.00 0.00 0.00 0.00 0.00 0.00 0.00 0.00 0.00 0.00 0.00 0.00 0.00 0.00 0.00 0.01 0.02 0.03 0.04 0.06 0.08
0.01 0.01 0.01 0.01 0.02 0.03 0.02 0.01 0.00 0.00 0.00 0.00 0.00 0.00 0.00 0.01 0.01 0.00 0.00 0.00 0.00 0.00 0.00 0.00 0.00 0.00 0.00 0.00 0.00 0.00 0.00 0.00 0.00 0.00 0.00 0.00 0.01 0.01 0.01 0.02 0.03 0.04 0.06 0.09
0.01 0.01 0.00 0.00 0.01 0.00 0.01 0.01 0.00 0.00 0.00 0.00 0.00 0.00 0.00 0.00 0.00 0.00 0.00 0.00 0.00 0.00 0.00 0.00 0.00 0.00 0.00 0.00 0.00 0.00 0.00 0.00 0.00 0.00 0.00 0.00 0.01 0.01 0.01 0.02 0.03 0.06 0.10 0.13
0.01 0.00 0.00 0.00 0.00 0.00 0.00 0.00 0.00 0.00 0.00 0.00 0.00 0.00 0.00 0.00 0.00 0.00 0.00 0.00 0.00 0.00 0.00 0.00 0.00 0.00 0.00 0.00 0.00 0.00 0.00 0.00 0.00 0.00 0.00 0.00 0.01 0.01 0.01 0.01 0.03 0.08 0.10 0.12
0.00 0.00 0.00 0.00 0.00 0.00 0.01 0.00 0.00 0.00 0.00 0.00 0.00 0.00 0.00 0.00 0.00 0.00 0.00 0.00 0.00 0.00 0.00 0.00 0.00 0.00 0.00 0.00 0.00 0.00 0.00 0.00 0.00 0.01 0.01 0.00 0.00 0.00 0.00 0.00 0.01 0.02 0.04 0.05
0.00 0.00 0.00 0.00 0.00 0.01 0.02 0.00 0.00 0.00 0.00 0.00 0.00 0.00 0.00 0.00 0.00 0.00 0.00 0.00 0.00 0.00 0.00 0.00 0.00 0.00 0.00 0.00 0.00 0.00 0.00 0.00 0.00 0.00 0.01 0.01 0.01 0.03 0.05 0.03 0.01 0.00 0.01 0.03
0.00 0.00 0.00 0.00 0.00 0.00 0.01 0.00 0.00 0.00 0.00 0.00 0.00 0.00 0.00 0.00 0.00 0.00 0.00 0.00 0.00 0.00 0.00 0.00 0.00 0.00 0.00 0.00 0.00 0.00 0.00 0.00 0.00 0.01 0.01 0.01 0.01 0.05 0.13 0.17 0.12 0.03 0.00 0.01
0.00 0.00 0.00 0.00 0.00 0.00 0.00 0.00 0.00 0.00 0.00 0.00 0.00 0.00 0.00 0.00 0.00 0.00 0.00 0.00 0.00 0.00 0.00 0.00 0.00 0.00 0.00 0.00 0.00 0.00 0.00 0.00 0.02 0.04 0.02 0.01 0.02 0.09 0.13 0.05 0.03 0.04 0.03 0.01
0.00 0.00 0.00 0.00 0.00 0.00 0.00 0.00 0.00 0.00 0.00 0.00 0.00 0.00 0.00 0.00 0.00 0.00 0.00 0.00 0.00 0.00 0.00 0.00 0.00 0.00 0.00 0.00 0.00 0.00 0.00 0.00 0.01 0.06 0.06 0.02 0.04 0.07 0.05 0.03 0.03 0.05 0.04 0.02
0.00 0.00 0.00 0.00 0.00 0.00 0.00 0.00 0.00 0.00 0.00 0.00 0.00 0.00 0.00 0.00 0.00 0.00 0.00 0.00 0.00 0.00 0.00 0.00 0.00 0.00 0.00 0.00 0.00 0.00 0.00 0.00 0.00 0.02 0.05 0.03 0.03 0.04 0.02 0.02 0.03 0.03 0.02 0.01
0.00 0.00 0.00 0.00 0.00 0.00 0.00 0.00 0.00 0.00 0.00 0.00 0.00 0.00 0.00 0.00 0.00 0.00 0.00 0.00 0.00 0.00 0.00 0.00 0.00 0.00 0.00 0.00 0.00 0.00 0.00 0.00 0.00 0.03 0.03 0.02 0.01 0.03 0.04 0.02 0.01 0.02 0.02 0.01
0.00 0.00 0.00 0.00 0.00 0.00 0.00 0.00 0.00 0.00 0.00 0.00 0.00 0.00 0.00 0.00 0.00 0.00 0.00 0.00 0.00 0.00 0.00 0.00 0.00 0.00 0.00 0.00 0.00 0.00 0.00 0.00 0.00 0.02 0.03 0.01 0.00 0.01 0.04 0.05 0.02 0.03 0.03 0.02
0.00 0.00 0.00 0.00 0.00 0.00 0.00 0.00 0.00 0.00 0.00 0.00 0.00 0.00 0.00 0.00 0.00 0.00 0.00 0.00 0.00 0.00 0.00 0.00 0.00 0.00 0.00 0.00 0.00 0.00 0.00 0.00 0.00 0.01 0.03 0.02 0.01 0.02 0.02 0.02 0.03 0.05 0.05 0.04
0.00 0.00 0.00 0.00 0.00 0.00 0.00 0.00 0.00 0.00 0.00 0.00 0.00 0.00 0.00 0.00 0.00 0.00 0.00 0.00 0.00 0.00 0.00 0.00 0.00 0.00 0.00 0.00 0.00 0.00 0.00 0.00 0.00 0.01 0.03 0.02 0.02 0.02 0.01 0.00 0.02 0.05 0.03 0.03
0.00 0.00 0.00 0.00 0.00 0.00 0.00 0.00 0.00 0.00 0.00 0.00 0.00 0.00 0.00 0.00 0.00 0.00 0.00 0.00 0.00 0.00 0.00 0.00 0.00 0.00 0.00 0.00 0.00 0.00 0.00 0.00 0.00 0.00 0.01 0.01 0.01 0.01 0.01 0.01 0.02 0.02 0.01 0.02
0.00 0.00 0.00 0.00 0.00 0.00 0.00 0.00 0.00 0.00 0.00 0.00 0.00 0.00 0.00 0.00 0.00 0.00 0.00 0.00 0.00 0.00 0.00 0.00 0.00 0.00 0.00 0.00 0.00 0.00 0.00 0.00 0.00 0.00 0.01 0.02 0.02 0.01 0.01 0.02 0.02 0.01 0.00 0.01
0.00 0.00 0.00 0.00 0.00 0.00 0.00 0.00 0.00 0.00 0.00 0.00 0.00 0.00 0.00 0.00 0.00 0.00 0.00 0.00 0.00 0.00 0.00 0.00 0.00 0.00 0.00 0.00 0.00 0.00 0.00 0.00 0.00 0.00 0.01 0.03 0.03 0.02 0.01 0.01 0.00 0.00 0.01 0.01
0.00 0.00 0.00 0.00 0.00 0.00 0.00 0.00 0.00 0.00 0.00 0.00 0.00 0.00 0.00 0.00 0.00 0.00 0.00 0.00 0.00 0.00 0.00 0.00 0.00 0.00 0.00 0.00 0.00 0.00 0.00 0.00 0.00 0.00 0.01 0.01 0.01 0.01 0.01 0.00 0.00 0.00 0.00 0.00
0.00 0.00 0.00 0.00 0.00 0.00 0.00 0.00 0.00 0.00 0.00 0.00 0.00 0.00 0.00 0.00 0.00 0.00 0.00 0.00 0.00 0.00 0.00 0.00 0.00 0.00 0.00 0.00 0.00 0.00 0.00 0.00 0.00 0.00 0.00 0.00 0.00 0.00 0.00 0.00 0.00 0.00 0.00 0.00
0.00 0.00 0.00 0.00 0.00 0.00 0.00 0.00 0.00 0.00 0.00 0.00 0.00 0.00 0.00 0.00 0.00 0.00 0.00 0.00 0.00 0.00 0.00 0.00 0.00 0.00 0.00 0.00 0.00 0.00 0.00 0.00 0.00 0.00 0.00 0.00 0.00 0.00 0.00 0.00 0.00 0.00 0.00 0.00
MSLP
1014.40 1014.39 1014.44 1014.56 1014.75 1014.98 1015.17 1015.25 1015.15 1014.83 1014.24 1013.40 1012.35 1011.17 1009.95 1008.76 1007.69 1006.79 1006.09 1005.58 1005.23 1005.02 1004.91 1004.86 1004.85 1004.90 1005.00 1005.17 1005.41 1005.73 1006.12 1006.54 1006.97 1007.37 1007.71 1007.96 1008.14 1008.25 1008.32 1008.39 1008.50 1008.68 1008.95 1009.30
1014.82 1014.99 1015.20 1015.47 1015.76 1016.04 1016.24 1016.29 1016.13 1015.72 1015.04 1014.12 1012.98 1011.72 1010.42 1009.17 1008.05 1007.10 1006.35 1005.80 1005.43 1005.20 1005.07 1005.02 1005.03 1005.08 1005.18 1005.35 1005.58 1005.87 1006.22 1006.60 1006.98 1007.33 1007.61 1007.82 1007.95 1008.02 1008.06 1008.09 1008.17 1008.31 1008.55 1008.87
1015.31 1015.65 1016.02 1016.41 1016.80 1017.12 1017.32 1017.33 1017.10 1016.60 1015.83 1014.81 1013.60 1012.27 1010.92 1009.64 1008.49 1007.53 1006.78 1006.24 1005.89 1005.68 1005.58 1005.55 1005.57 1005.63 1005.73 1005.87 1006.06 1006.29 1006.57 1006.87 1007.17 1007.44 1007.66 1007.81 1007.89 1007.92 1007.91 1007.91 1007.95 1008.05 1008.24 1008.52
1015.95 1016.41 1016.90 1017.39 1017.82 1018.16 1018.33 1018.29 1017.98 1017.39 1016.53 1015.43 1014.16 1012.79 1011.43 1010.15 1009.03 1008.11 1007.40 1006.91 1006.61 1006.45 1006.39 1006.40 1006.43 1006.49 1006.56 1006.66 1006.78 1006.93 1007.12 1007.32 1007.52 1007.70 1007.85 1007.94 1007.97 1007.97 1007.93 1007.90 1007.91 1007.97 1008.11 1008.32
1016.73 1017.27 1017.81 1018.33 1018.77 1019.07 1019.19 1019.06 1018.67 1018.00 1017.06 1015.91 1014.61 1013.25 1011.91 1010.68 1009.62 1008.77 1008.15 1007.73 1007.50 1007.40 1007.39 1007.42 1007.47 1007.52 1007.55 1007.59 1007.63 1007.69 1007.77 1007.87 1007.97 1008.07 1008.15 1008.19 1008.20 1008.17 1008.12 1008.07 1008.05 1008.07 1008.16 1008.31
1017.58 1018.12 1018.65 1019.14 1019.52 1019.75 1019.78 1019.56 1019.08 1018.34 1017.36 1016.19 1014.90 1013.58 1012.31 1011.16 1010.19 1009.44 1008.91 1008.58 1008.42 1008.38 1008.41 1008.46 1008.51 1008.53 1008.53 1008.50 1008.47 1008.44 1008.43 1008.43 1008.45 1008.49 1008.51 1008.53 1008.52 1008.49 1008.45 1008.40 1008.37 1008.36 1008.39 1008.47
1018.38 1018.86 1019.32 1019.71 1019.99 1020.11 1020.03 1019.72 1019.16 1018.37 1017.37 1016.22 1014.98 1013.73 1012.56 1011.52 1010.66 1010.02 1009.58 1009.33 1009.23 1009.23 1009.29 1009.35 1009.39 1009.39 1009.34 1009.26 1009.17 1009.07 1008.99 1008.93 1008.90 1008.89 1008.89 1008.90 1008.90 1008.89 1008.86 1008.83 1008.80 1008.78 1008.77 1008.79
1018.99 1019.36 1019.70 1019.97 1020.11 1020.11 1019.91 1019.51 1018.89 1018.08 1017.09 1015.99 1014.83 1013.69 1012.64 1011.72 1010.98 1010.43 1010.07 1009.88 1009.82 1009.85 1009.91 1009.96 1009.99 1009.97 1009.90 1009.78 1009.65 1009.51 1009.39 1009.30 1009.25 1009.23 1009.23 1009.25 1009.28 1009.30 1009.31 1009.31 1009.28 1009.25 1009.22 1009.18
1019.30 1019.55 1019.74 1019.87 1019.88 1019.74 1019.45 1018.98 1018.33 1017.52 1016.58 1015.55 1014.50 1013.49 1012.55 1011.75 1011.11 1010.64 1010.34 1010.19 1010.15 1010.17 1010.22 1010.27 1010.28 1010.24 1010.16 1010.04 1009.90 1009.76 1009.63 1009.54 1009.49 1009.49 1009.51 1009.56 1009.63 1009.69 1009.73 1009.76 1009.76 1009.73 1009.68 1009.60
1019.28 1019.39 1019.46 1019.45 1019.34 1019.11 1018.74 1018.22 1017.57 1016.80 1015.92 1015.00 1014.06 1013.17 1012.35 1011.66 1011.10 1010.69 1010.42 1010.27 1010.22 1010.23 1010.26 1010.28 1010.28 1010.24 1010.17 1010.06 1009.94 1009.83 1009.73 1009.67 1009.65 1009.67 1009.73 1009.82 1009.92 1010.01 1010.09 1010.15 1010.17 1010.15 1010.09 1009.99
1018.96 1018.96 1018.92 1018.81 1018.62 1018.32 1017.91 1017.39 1016.76 1016.04 1015.25 1014.43 1013.61 1012.82 1012.11 1011.49 1010.99 1010.61 1010.35 1010.19 1010.11 1010.08 1010.08 1010.09 1010.08 1010.05 1010.01 1009.94 1009.87 1009.80 1009.75 1009.74 1009.76 1009.81 1009.90 1010.01 1010.14 1010.26 1010.37 1010.45 1010.48 1010.48 1010.42 1010.31
1018.41 1018.36 1018.26 1018.10 1017.86 1017.54 1017.13 1016.63 1016.04 1015.39 1014.68 1013.95 1013.23 1012.54 1011.90 1011.33 1010.86 1010.49 1010.20 1010.01 1009.89 1009.82 1009.79 1009.78 1009.78 1009.77 1009.77 1009.75 1009.74 1009.74 1009.75 1009.78 1009.84 1009.93 1010.04 1010.17 1010.31 1010.44 1010.56 1010.65 1010.70 1010.71 1010.66 1010.56
1017.78 1017.70 1017.59 1017.43 1017.19 1016.89 1016.50 1016.04 1015.51 1014.92 1014.29 1013.64 1012.98 1012.35 1011.76 1011.22 1010.75 1010.36 1010.04 1009.80 1009.63 1009.52 1009.47 1009.45 1009.46 1009.49 1009.53 1009.57 1009.63 1009.69 1009.75 1009.83 1009.93 1010.03 1010.16 1010.29 1010.43 1010.56 1010.68 1010.78 1010.84 1010.86 1010.83 1010.74
1017.15 1017.11 1017.03 1016.89 1016.70 1016.43 1016.09 1015.67 1015.19 1014.66 1014.08 1013.48 1012.88 1012.28 1011.70 1011.17 1010.68 1010.25 1009.89 1009.60 1009.39 1009.24 1009.16 1009.14 1009.16 1009.22 1009.31 1009.42 1009.54 1009.66 1009.78 1009.90 1010.01 1010.13 1010.26 1010.38 1010.51 1010.64 1010.75 1010.85 1010.92 1010.96 1010.95 1010.90
1016.61 1016.62 1016.60 1016.53 1016.39 1016.17 1015.88 1015.51 1015.07 1014.57 1014.03 1013.46 1012.87 1012.28 1011.70 1011.14 1010.63 1010.16 1009.75 1009.41 1009.16 1008.98 1008.88 1008.85 1008.89 1008.99 1009.12 1009.28 1009.46 1009.63 1009.79 1009.95 1010.09 1010.21 1010.33 1010.45 1010.56 1010.68 1010.79 1010.89 1010.98 1011.04 1011.06 1011.05
1016.17 1016.26 1016.31 1016.31 1016.23 1016.06 1015.81 1015.47 1015.06 1014.58 1014.05 1013.49 1012.90 1012.30 1011.70 1011.12 1010.56 1010.05 1009.60 1009.22 1008.93 1008.72 1008.60 1008.58 1008.63 1008.75 1008.93 1009.14 1009.36 1009.57 1009.78 1009.96 1010.12 1010.25 1010.37 1010.48 1010.59 1010.69 1010.80 1010.91 1011.02 1011.11 1011.18 1011.21
1015.81 1015.98 1016.11 1016.16 1016.14 1016.01 1015.79 1015.47 1015.07 1014.60 1014.07 1013.50 1012.90 1012.28 1011.66 1011.05 1010.46 1009.92 1009.43 1009.02 1008.69 1008.46 1008.33 1008.30 1008.36 1008.50 1008.71 1008.95 1009.21 1009.47 1009.71 1009.92 1010.10 1010.25 1010.38 1010.49 1010.60 1010.71 1010.82 1010.95 1011.07 1011.20 1011.31 1011.39
1015.48 1015.72 1015.91 1016.02 1016.03 1015.93 1015.72 1015.42 1015.02 1014.55 1014.02 1013.44 1012.83 1012.20 1011.56 1010.93 1010.33 1009.76 1009.24 1008.80 1008.45 1008.20 1008.05 1008.02 1008.08 1008.23 1008.46 1008.73 1009.02 1009.32 1009.59 1009.84 1010.05 1010.23 1010.37 1010.50 1010.62 1010.74 1010.87 1011.01 1011.15 1011.31 1011.45 1011.59
1015.14 1015.43 1015.66 1015.80 1015.83 1015.75 1015.55 1015.25 1014.86 1014.39 1013.87 1013.29 1012.69 1012.06 1011.42 1010.79 1010.17 1009.59 1009.06 1008.60 1008.23 1007.96 1007.80 1007.75 1007.81 1007.97 1008.20 1008.49 1008.81 1009.14 1009.46 1009.74 1009.99 1010.20 1010.38 1010.53 1010.67 1010.81 1010.95 1011.11 1011.27 1011.45 1011.62 1011.79
1014.76 1015.09 1015.34 1015.49 1015.53 1015.45 1015.26 1014.97 1014.59 1014.13 1013.63 1013.07 1012.49 1011.88 1011.27 1010.65 1010.04 1009.46 1008.92 1008.45 1008.06 1007.77 1007.60 1007.53 1007.58 1007.73 1007.98 1008.28 1008.63 1008.99 1009.34 1009.67 1009.96 1010.22 1010.43 1010.62 1010.78 1010.94 1011.09 1011.25 1011.43 1011.61 1011.80 1011.98
1014.35 1014.68 1014.94 1015.09 1015.12 1015.04 1014.86 1014.58 1014.23 1013.81 1013.34 1012.83 1012.29 1011.72 1011.14 1010.55 1009.97 1009.40 1008.87 1008.39 1007.99 1007.68 1007.48 1007.40 1007.43 1007.58 1007.82 1008.14 1008.51 1008.90 1009.29 1009.66 1010.00 1010.29 1010.55 1010.76 1010.95 1011.12 1011.28 1011.45 1011.62 1011.80 1011.98 1012.17
1013.92 1014.24 1014.48 1014.62 1014.65 1014.57 1014.40 1014.15 1013.83 1013.46 1013.04 1012.59 1012.11 1011.60 1011.07 1010.52 1009.97 1009.42 1008.89 1008.41 1008.00 1007.68 1007.46 1007.36 1007.38 1007.51 1007.75 1008.08 1008.46 1008.88 1009.30 1009.71 1010.09 1010.42 1010.71 1010.96 1011.17 1011.35 1011.51 1011.67 1011.83 1012.00 1012.18 1012.36
1013.49 1013.79 1014.01 1014.13 1014.15 1014.08 1013.93 1013.71 1013.43 1013.12 1012.77 1012.38 1011.97 1011.52 1011.05 1010.54 1010.02 1009.50 1008.98 1008.50 1008.08 1007.74 1007.51 1007.39 1007.39 1007.52 1007.75 1008.08 1008.48 1008.92 1009.37 1009.81 1010.22 1010.59 1010.90 1011.17 1011.39 1011.58 1011.74 1011.89 1012.04 1012.20 1012.36 1012.54
1013.08 1013.35 1013.54 1013.64 1013.66 1013.59 1013.46 1013.28 1013.06 1012.80 1012.52 1012.20 1011.85 1011.47 1011.04 1010.58 1010.09 1009.58 1009.08 1008.60 1008.17 1007.83 1007.58 1007.45 1007.44 1007.56 1007.79 1008.12 1008.53 1008.98 1009.45 1009.91 1010.34 1010.73 1011.07 1011.35 1011.58 1011.77 1011.93 1012.08 1012.22 1012.37 1012.53 1012.71
1012.69 1012.94 1013.10 1013.17 1013.18 1013.12 1013.01 1012.87 1012.69 1012.50 1012.27 1012.02 1011.73 1011.39 1011.01 1010.58 1010.12 1009.63 1009.13 1008.65 1008.23 1007.87 1007.62 1007.48 1007.47 1007.58 1007.81 1008.15 1008.56 1009.02 1009.50 1009.97 1010.41 1010.81 1011.15 1011.44 1011.67 1011.87 1012.03 1012.19 1012.34 1012.50 1012.67 1012.87
1012.32 1012.53 1012.66 1012.71 1012.71 1012.66 1012.57 1012.46 1012.33 1012.18 1012.01 1011.81 1011.56 1011.26 1010.91 1010.51 1010.06 1009.58 1009.09 1008.62 1008.20 1007.85 1007.59 1007.45 1007.44 1007.56 1007.79 1008.12 1008.53 1008.99 1009.47 1009.94 1010.38 1010.78 1011.12 1011.41 1011.65 1011.86 1012.03 1012.20 1012.37 1012.56 1012.76 1013.00
1011.93 1012.10 1012.20 1012.24 1012.23 1012.19 1012.13 1012.04 1011.95 1011.84 1011.71 1011.54 1011.32 1011.06 1010.73 1010.34 1009.91 1009.44 1008.96 1008.50 1008.08 1007.74 1007.49 1007.36 1007.35 1007.47 1007.70 1008.03 1008.43 1008.88 1009.35 1009.81 1010.24 1010.64 1010.97 1011.26 1011.51 1011.72 1011.92 1012.11 1012.32 1012.54 1012.80 1013.08
Thickness
5621 5627 5626 5624 5631 5640 5639 5641 5632 5631 5636 5641 5652 5662 5680 5697 5710 5717 5721 5725 5730 5733 5735 5736 5736 5736 5735 5733 5731 5726 5716 5707 5703 5702 5701 5698 5696 5693 5690 5688 5686 5683 5680 5677
5610 5624 5630 5617 5611 5620 5623 5623 5623 5624 5623 5632 5647 5661 5676 5691 5703 5710 5715 5719 5723 5727 5728 5730 5731 5731 5730 5726 5724 5720 5712 5706 5704 5700 5697 5695 5693 5690 5687 5684 5683 5680 5677 5673
5596 5614 5625 5592 5577 5588 5597 5604 5608 5603 5606 5624 5636 5647 5659 5676 5690 5699 5705 5708 5711 5714 5717 5721 5723 5723 5719 5718 5718 5714 5708 5704 5701 5696 5691 5689 5688 5685 5682 5680 5677 5674 5671 5669
5592 5597 5589 5560 5568 5577 5584 5593 5595 5597 5605 5616 5623 5634 5653 5668 5676 5684 5690 5695 5699 5702 5705 5709 5711 5711 5710 5708 5706 5702 5698 5695 5693 5690 5686 5683 5680 5678 5676 5674 5671 5668 5665 5663
5585 5581 5570 5559 5568 5572 5576 5586 5592 5593 5602 5614 5626 5643 5652 5664 5670 5674 5681 5685 5688 5692 5694 5697 5699 5701 5699 5694 5690 5687 5684 5682 5681 5679 5676 5673 5670 5669 5667 5665 5663 5661 5660 5657
5580 5576 5562 5555 5574 5582 5582 5587 5593 5593 5601 5612 5624 5631 5641 5660 5667 5669 5674 5679 5682 5684 5687 5687 5688 5688 5684 5680 5677 5674 5674 5672 5671 5668 5664 5661 5659 5658 5658 5657 5656 5655 5654 5652
5575 5576 5565 5570 5581 5587 5579 5577 5587 5595 5604 5612 5619 5627 5643 5660 5668 5670 5671 5675 5677 5677 5677 5678 5678 5676 5671 5669 5668 5668 5667 5665 5661 5658 5655 5652 5650 5650 5649 5649 5649 5648 5647 5645
5570 5567 5564 5581 5585 5579 5578 5586 5593 5601 5608 5616 5625 5636 5648 5660 5668 5670 5669 5670 5672 5670 5670 5672 5672 5669 5664 5662 5664 5664 5661 5658 5655 5651 5648 5646 5644 5643 5643 5642 5640 5639 5637 5634
5568 5571 5582 5589 5588 5589 5591 5594 5600 5605 5612 5621 5630 5638 5649 5660 5669 5670 5670 5668 5668 5667 5667 5667 5667 5665 5661 5660 5662 5660 5656 5652 5649 5646 5641 5639 5637 5636 5635 5634 5631 5628 5625 5621
5579 5585 5590 5592 5590 5592 5595 5599 5605 5611 5618 5626 5633 5642 5652 5662 5670 5673 5670 5667 5666 5666 5664 5662 5664 5663 5661 5661 5661 5658 5652 5648 5645 5640 5636 5633 5630 5628 5626 5622 5619 5616 5612 5608
5585 5590 5590 5592 5590 5593 5597 5605 5612 5618 5625 5631 5637 5647 5656 5664 5671 5674 5671 5668 5666 5664 5661 5662 5663 5661 5659 5658 5657 5655 5650 5646 5641 5635 5631 5628 5623 5618 5617 5611 5608 5605 5600 5596
5588 5589 5586 5590 5596 5600 5604 5611 5617 5624 5631 5638 5644 5653 5661 5666 5672 5675 5673 5670 5665 5662 5660 5661 5662 5659 5657 5654 5652 5649 5645 5640 5636 5632 5628 5625 5621 5615 5609 5606 5601 5598 5594 5589
5598 5599 5599 5601 5604 5608 5612 5617 5624 5630 5635 5641 5651 5658 5662 5666 5672 5675 5673 5670 5667 5664 5661 5661 5660 5658 5655 5652 5649 5645 5642 5637 5633 5629 5625 5623 5620 5616 5610 5603 5598 5594 5592 5588
5608 5606 5604 5606 5607 5613 5618 5623 5629 5634 5639 5645 5652 5658 5662 5666 5670 5672 5672 5673 5671 5668 5665 5663 5660 5657 5655 5652 5647 5643 5640 5634 5630 5627 5624 5622 5620 5616 5611 5606 5600 5594 5590 5587
5615 5611 5609 5610 5612 5615 5620 5625 5629 5633 5637 5644 5652 5657 5661 5664 5667 5670 5673 5677 5675 5671 5668 5665 5662 5659 5656 5652 5647 5643 5639 5634 5629 5626 5623 5622 5619 5615 5610 5605 5600 5596 5592 5589
5619 5615 5613 5610 5610 5614 5618 5621 5626 5630 5635 5642 5649 5654 5660 5665 5669 5673 5677 5679 5676 5672 5670 5668 5665 5663 5659 5653 5648 5643 5637 5632 5628 5625 5623 5622 5619 5615 5610 5606 5603 5599 5594 5591
5619 5613 5610 5608 5608 5611 5614 5618 5623 5629 5634 5641 5647 5653 5659 5665 5670 5675 5680 5683 5681 5678 5676 5673 5671 5669 5662 5656 5651 5646 5642 5635 5630 5627 5626 5623 5621 5617 5614 5609 5604 5600 5595 5592
5625 5618 5612 5610 5609 5609 5612 5616 5620 5626 5632 5639 5647 5652 5656 5661 5667 5673 5679 5684 5684 5682 5681 5680 5677 5672 5665 5660 5655 5652 5647 5641 5636 5632 5629 5626 5624 5621 5617 5614 5609 5604 5599 5595
5627 5621 5616 5612 5610 5610 5612 5615 5619 5625 5631 5637 5643 5649 5654 5660 5667 5674 5681 5683 5682 5680 5683 5685 5682 5675 5669 5664 5660 5654 5651 5646 5640 5637 5633 5629 5628 5624 5620 5616 5612 5607 5603 5599
5629 5625 5620 5615 5612 5611 5611 5615 5619 5624 5629 5634 5640 5647 5652 5658 5665 5672 5677 5680 5682 5685 5689 5690 5684 5678 5674 5668 5662 5658 5655 5649 5644 5641 5637 5633 5629 5625 5622 5618 5615 5611 5607 5603
5632 5628 5624 5619 5615 5613 5613 5615 5618 5622 5627 5631 5636 5643 5650 5657 5664 5670 5675 5678 5685 5691 5691 5688 5685 5680 5677 5670 5663 5662 5657 5652 5648 5644 5639 5635 5631 5627 5624 5621 5617 5613 5609 5606
5635 5632 5628 5624 5619 5616 5615 5615 5616 5620 5623 5627 5633 5641 5647 5654 5661 5668 5675 5680 5687 5689 5688 5686 5685 5682 5677 5671 5666 5664 5659 5654 5650 5646 5642 5638 5634 5631 5628 5623 5619 5615 5611 5609
5637 5634 5631 5628 5624 5620 5618 5617 5617 5617 5619 5623 5629 5636 5643 5649 5656 5663 5670 5680 5685 5686 5685 5686 5685 5681 5676 5671 5669 5666 5661 5657 5653 5649 5645 5641 5638 5634 5630 5625 5621 5618 5614 5611
5636 5633 5631 5629 5626 5622 5619 5619 5617 5616 5618 5620 5625 5632 5639 5645 5653 5662 5671 5677 5680 5681 5682 5684 5681 5678 5675 5672 5671 5668 5664 5660 5656 5653 5649 5644 5641 5637 5632 5627 5623 5619 5616 5613
5636 5633 5631 5628 5625 5622 5620 5618 5615 5615 5615 5617 5622 5628 5634 5640 5647 5657 5666 5673 5676 5678 5679 5678 5678 5677 5675 5674 5673 5670 5666 5662 5658 5655 5651 5647 5643 5639 5634 5630 5626 5621 5617 5614
5632 5631 5629 5627 5626 5623 5620 5617 5614 5612 5611 5612 5617 5623 5628 5635 5643 5653 5662 5670 5676 5676 5677 5675 5674 5674 5674 5676 5674 5671 5668 5663 5659 5655 5652 5648 5644 5639 5635 5631 5628 5624 5620 5616
5629 5628 5626 5624 5623 5622 5621 5618 5613 5609 5607 5607 5609 5615 5621 5629 5638 5647 5657 5665 5671 5673 5675 5674 5674 5674 5674 5675 5673 5671 5668 5664 5660 5656 5652 5648 5644 5640 5636 5633 5629 5626 5622 5618